Regional Weather Roundup
Issued by NWS

Home | Current Version | Previous Version | Graphics & Text | Print | Product List | Glossary On
Versions: 1 2 3 4 5 6 7 8 9 10 11 12 13 14 15 16 17 18 19 20 21 22 23 24 25 26 27 28 29 30 31 32 33 34 35 36 37 38 39 40 41 42 43 44 45 46 47 48 49 50
000
ASUS43 KLOT 230908
RWRIL

ILLINOIS REGIONAL WEATHER ROUNDUP
NATIONAL WEATHER SERVICE CHICAGO/ROMEOVILLE IL
300 AM CST THU FEB 23 2017

NOTE: "FAIR" INDICATES FEW OR NO CLOUDS BELOW 12,000 FEET WITH NO
SIGNIFICANT WEATHER AND/OR OBSTRUCTIONS TO VISIBILITY.

* THESE STATIONS ARE NOT UNDER NWS QUALITY CONTROL. THEY ALSO MAY NOT
  REPORT WEATHER SUCH AS PRECIPITATION OR FOG.

ILZ001-002-007-009-015-016-024-231000-
NORTHWEST ILLINOIS

CITY           SKY/WX    TMP DP  RH WIND       PRES   REMARKS
MOLINE         CLEAR    N/A N/A N/A NW10      29.73S
STERLING*      CLEAR     46  43  89 W8        29.71R
SAVANNA*       CLEAR     46  43  88 NW5       29.72R
$$

ILZ003-004-008-010-011-017-018-231000-
NORTH CENTRAL ILLINOIS

CITY           SKY/WX    TMP DP  RH WIND       PRES   REMARKS
ROCKFORD       CLEAR     48  42  80 NW6       29.71R
FREEPORT*      CLEAR     45  42  90 W10       29.72S
ROCHELLE*      CLEAR     43  41  92 W3        29.69S
DE KALB*       CLEAR     49  44  83 NW8       29.69R
PERU*          CLEAR     47  43  86 W8        29.72R
$$

ILZ005-006-012>014-019>023-231000-
NORTHEAST ILLINOIS

CITY           SKY/WX    TMP DP  RH WIND       PRES   REMARKS
CHICAGO-OHARE  CLEAR     52  47  83 W8        29.67R
CHICAGO-MIDWAY CLEAR     54  48  80 W9        29.67S
AURORA         CLEAR     49  44  83 SW7       29.70R
LANSING*       CLEAR     53  51  94 W8        29.69R
JOLIET*        CLEAR     53  50  90 W5        29.70R
WAUKEGAN       CLEAR     51  44  77 W7        29.65R
DUPAGE AIRPORT CLEAR     48  45  89 W6        29.68R
KANKAKEE*      FOG       45  44  98 CALM      29.70S VSB 1
WHEELING       CLEAR     51  45  79 W5        29.68R
MORRIS*        CLEAR     50  48  92 W6        29.69S
ROMEOVILLE*    CLEAR     50  50  99 W9        29.70R
NORTHERLY ISL    N/A     55  48  77 W8          N/A
$$

LMZ740>746-231000-
SOUTHERN LAKE MICHIGAN

STATION/POSITION SKY/WX   TEMP    WIND        PRES    VSBY  WAVE
                          AIR SEA DIR/SP/G                  HT/PER
                          (F)     (DEG/KT/KT) (MB)    (MI)  (FT/S)
HARRISON CRIB              57     260/ 16/ 17   N/A
BURNHAM HARBOR             55     270/  9/ 10   N/A
CALUMET HARBOR             56     230/  7/ 10 1004.5R
BURNS HARBOR               50     250/ 12/ 14 1005.4R
MICHIGAN CITY              51     210/ 19/ 19   N/A
$$

ILZ025>027-034>036-040-047-049-050-058-095>099-231000-
WEST-CENTRAL ILLINOIS

CITY           SKY/WX    TMP DP  RH WIND       PRES   REMARKS
QUINCY         CLEAR     50  46  86 N12       29.72S
GALESBURG*     CLEAR     46  43  88 NW5       29.72S
MACOMB*        CLEAR     47  46  94 NW9       29.75S
JACKSONVILLE*  FOG       44  44  99 CALM      29.72S VSB 1/2
PITTSFIELD*    FOG       49  49  98 W3        29.73S VSB 1/2
$$

ILZ028>032-037-038-041>044-048-051>054-059>061-231000-
CENTRAL ILLINOIS

CITY           SKY/WX    TMP DP  RH WIND       PRES   REMARKS
PONTIAC        CLEAR     53  51  96 NW9       29.71S
BLOOMINGTON    CLEAR     51  51 100 W7        29.72S FOG
DECATUR        CLEAR     54  51  90 W6        29.73S
PEORIA         FOG       44  44 100 CALM      29.71F VSB 1/4
LACON*         CLEAR     48  48 100 CALM      29.71S FOG
LINCOLN*       FOG       47  47 100 CALM      29.72S VSB<1/4
SPRINGFIELD    FOG       49  48  97 S5        29.72F VSB 1/2
TAYLORVILLE    CLEAR     52  51  96 SW6       29.74S
$$

ILZ033-039-045-046-055>057-062-063-231000-
EAST-CENTRAL ILLINOIS

CITY           SKY/WX    TMP DP  RH WIND       PRES   REMARKS
CHAMPAIGN      CLOUDY    50  48  93 SW6       29.73S
RANTOUL*       CLEAR     53  52  96 SW8       29.72F
MATTOON        MOCLDY    55  54  96 S7        29.73S
PARIS*         PTCLDY    56  55  94 SW10      29.75S
$$

ILZ079-100>102-231000-
SOUTHWEST ILLINOIS

CITY           SKY/WX    TMP DP  RH WIND       PRES   REMARKS
ALTON          CLEAR     53  52  97 CALM      29.73S
BELLEVILLE     CLEAR     52  52 100 E3        29.72F
CAHOKIA*       CLEAR     52  50  93 S5        29.72F
SPARTA*        CLEAR     56  54  92 S6        29.75S
$$

ILZ064>066-069>071-074>076-080>082-084>086-088>090-092>094-231000-
SOUTH-CENTRAL ILLINOIS

CITY           SKY/WX    TMP DP  RH WIND       PRES   REMARKS
CARBONDALE     CLEAR     55  54  96 S6        29.76S
CAIRO*         PTCLDY    55  55 100 S3        29.78F
EFFINGHAM*     CLOUDY    56  56  99 S3        29.76S
MARION         PTCLDY    55  55 100 S6        29.77S
CENTRALIA*     PTCLDY    55  54  99 S5        29.74S
SALEM*         PTCLDY    57  54  91 S5        29.75S
METROPOLIS*    PTCLDY    57  55  92 CALM      29.79F
$$

ILZ067-068-072-073-078-083-087-091-231000-
SOUTHEAST ILLINOIS

CITY           SKY/WX    TMP DP  RH WIND       PRES   REMARKS
LAWRENCEVILLE  MOCLDY    53  52  96 S3        29.77F
FLORA*         MOCLDY    53  52  95 S6        29.75F FOG
FAIRFIELD*     CLOUDY    56  56  99 S3        29.75F
HARRISBURG*    PTCLDY    57  56  94 SW3       29.78S
ROBINSON*      CLOUDY    55  53  94 S6        29.76F
CARMI*         MOCLDY    53  53  98 S7        29.77S
$$

ABBREVIATIONS USED IN REMARKS
   TC - TEMPERATURE IN CELSIUS
  WCI - WIND CHILL INDEX
   HX - HEAT INDEX
  VSB - VISIBILITY
$$




USA.gov is the U.S. government's official web portal to all federal, state and local government web resources and services.